Location: Poughquag
(41.6090°N, 73.6820°W)
Time: 02:57:55
(UTC-04:00)

S-56A Canister/Altair - Pass Details

Date: 02 June 2020
Orbit: 633 x 2499 km, 38.9° (Epoch: 06 July)

Event Time Altitude Azimuth Distance (km) Brightness Sun altitude
Rises 12:19:02 0° 275° (W) 4,930 11.6 69.4°
Reaches altitude 10° 12:23:32 10° 258° (WSW) 4,269 11.4 69.7°
Maximum altitude 12:30:27 18° 222° (SW) 4,075 11.6 70.1°
Drops below altitude 10° 12:38:25 10° 187° (S) 5,006 12.1 70.5°
Sets 12:44:33 0° 171° (S) 6,141 12.4 70.6°
